www.pogodaiklimat.ru

Погода и климат >> Архив погоды >> Австралия >> Новый Южный Уэльс >> Нора Хед


ПОГОДА в Нора Хед

  • Прогноз погоды в Нора Хед
  • Монитор погоды в Нора Хед

АРХИВ ПОГОДЫ в Нора Хед

Время (UTC), дата Ветер
(напр.,м/с)
 
Видим.   Явления Облачность Т
(С)
Тd
(С)
f
(%)
Тe
(С)
Тes
(С)
Комфортность P
(гПа)
Po
(гПа)
Тmin
(С)
Tmax
(С)
R
(мм)
R24
(мм)
S
(см)
13 14.08 С 3 н/о н/о +12.9 +8.8 76 +12 +12 1026.2 1023.8
14 14.08 СЗ 2 н/о н/о +10.6 +6.9 78 +10 +10 1026.1 1023.7 +18.2
16 14.08 штиль 0 н/о н/о +9.1 +6.4 83 +8 +8 1025.7 1023.3
17 14.08 СЗ 2 н/о н/о +7.7 +5.0 83 +6 +6 1025.2 1022.8
19 14.08 З 3 н/о н/о +9.7 +4.3 69 +8 +8 1025.1 1022.7
20 14.08 З 1 н/о н/о +7.6 +3.8 77 +7 +7 1025.2 1022.8
22 14.08 З 4 н/о н/о +11.3 -1.8 40 +9 +9 1026.0 1023.6
23 14.08 З 3 н/о н/о +13.6 +0.6 41 +13 +13 1026.3 1023.9
01 15.08 З 2 н/о н/о +17.9 +1.0 32 +18 +18 1025.4 1023.0
02 15.08 ЮЗ 1 н/о н/о +18.5 +0.6 30 +20 +20 1024.5 1022.1 +6.8
04 15.08 ЮВ 5 н/о н/о +19.3 +5.0 39 +20 +20 1022.3 1019.9
05 15.08 ЮВ 5 н/о н/о +17.5 +4.1 41 +17 +17 1021.9 1019.5
07 15.08 В 4 н/о н/о +15.6 +4.9 49 +15 +15 1022.0 1019.6
08 15.08 СВ 4 н/о н/о +14.8 +6.4 57 +14 +14 1022.4 1020.0
10 15.08 СЗ 2 н/о н/о +13.7 +5.3 57 +13 +13 1023.3 1020.9
11 15.08 СЗ 2 н/о н/о +13.8 +5.7 58 +13 +13 1023.1 1020.7
13 15.08 З 3 н/о н/о +13.7 +5.3 57 +13 +13 1023.0 1020.6
14 15.08 СЗ 3 н/о н/о +10.6 +4.7 67 +9 +9 1022.8 1020.4 +20.4
16 15.08 СЗ 3 н/о н/о +9.5 +6.0 79 +8 +8 1021.7 1019.3
17 15.08 СЗ 3 н/о н/о +10.1 +5.5 73 +8 +8 1020.9 1018.5
19 15.08 СЗ 2 н/о н/о +10.5 +1.1 52 +9 +9 1020.3 1017.9
20 15.08 СЗ 2 н/о н/о +9.5 +1.2 56 +8 +8 1020.5 1018.1
22 15.08 С 2 н/о н/о +13.7 +5.1 56 +14 +14 1020.4 1018.0
23 15.08 СЗ 2 н/о н/о +15.5 +2.7 42 +16 +16 1020.0 1017.6
01 16.08 З 3 н/о н/о +21.0 +0.8 26 +22 +22 комфорт 1019.0 1016.6
02 16.08 З 2 н/о н/о +21.7 +0.3 24 +21 +21 комфорт 1018.1 1015.7 +8.9
04 16.08 ЮВ 4 н/о н/о +21.3 +8.6 44 +22 +22 комфорт 1015.7 1013.4
05 16.08 В 5 н/о н/о +19.8 +7.9 46 +21 +21 комфорт 1015.2 1012.9
07 16.08 В 4 н/о н/о +17.7 +10.1 61 +17 +17 1015.2 1012.9
08 16.08 СВ 2 н/о н/о +17.1 +12.8 76 +18 +18 1015.8 1013.5
10 16.08 СЗ 1 н/о н/о +14.9 +7.9 63 +15 +15 1016.3 1014.0
11 16.08 СЗ 2 н/о н/о +16.9 +1.8 36 +18 +18 1015.9 1013.6
13 16.08 С 1 н/о н/о +15.3 +4.1 47 +16 +16 1015.3 1013.0
14 16.08 СЗ 3 н/о н/о +13.8 +4.4 53 +13 +13 1014.5 1012.2 +23.0
16 16.08 З 3 н/о н/о +16.9 -2.2 27 +17 +17 1014.5 1012.2
17 16.08 З 3 н/о н/о +15.6 -1.4 31 +15 +15 1014.2 1011.9
19 16.08 ЮЗ 3 н/о н/о +15.4 -1.2 32 +15 +15 1015.0 1012.7
20 16.08 З 4 н/о н/о +13.6 +0.3 40 +13 +13 1015.4 1013.1
22 16.08 ЮЗ 4 н/о н/о +15.3 +4.1 47 +15 +15 1018.1 1015.7
23 16.08 ЮЗ 6 н/о н/о +15.9 +5.8 51 +15 +15 1018.6 1016.2
01 17.08 Ю 8 н/о н/о +17.4 +10.1 62 +16 +16 1019.0 1016.6
02 17.08 Ю 8 н/о н/о +17.5 +9.2 58 +16 +16 1018.9 1016.5 +13.3
04 17.08 Ю 8 н/о н/о +17.2 +9.4 60 +16 +16 1018.8 1016.4
05 17.08 Ю 9 н/о н/о +16.9 +9.8 63 +15 +15 1019.0 1016.6
07 17.08 Ю 7 н/о н/о +15.8 +9.9 68 +14 +14 1019.5 1017.1
08 17.08 Ю 7 н/о н/о +15.7 +10.2 70 +14 +14 1020.1 1017.7
10 17.08 Ю 8 н/о н/о +15.7 +10.7 72 +14 +14 1020.7 1018.3
11 17.08 Ю 5 н/о н/о +15.6 +10.8 73 +14 +14 1021.1 1018.7
13 17.08 З 4 н/о н/о +13.1 +9.5 79 +11 +11 1021.5 1019.1
14 17.08 З 4 н/о н/о +13.1 +9.4 78 +11 +11 1021.2 1018.8 +17.9
16 17.08 З 5 н/о н/о +12.7 +9.5 81 +11 +11 1020.6 1018.2
17 17.08 З 6 н/о н/о +12.3 +9.3 82 +10 +10 1020.2 1017.8
19 17.08 З 4 н/о н/о +12.4 +9.4 82 +11 +11 1019.6 1017.2
20 17.08 З 3 н/о н/о +11.9 +8.9 82 +10 +10 1020.1 1017.7
22 17.08 С 1 н/о н/о +14.4 +10.6 78 +15 +15 1020.3 1017.9
23 17.08 С 2 н/о н/о +16.3 +11.0 71 +17 +17 1020.2 1017.8
01 18.08 С 6 н/о н/о +19.8 +13.0 65 +21 +21 комфорт 1018.7 1016.3
02 18.08 СВ 7 н/о н/о +20.1 +13.6 66 +22 +22 комфорт 1017.4 1015.0 +11.2
04 18.08 СВ 10 н/о н/о +20.2 +14.8 71 +22 +22 комфорт 1014.2 1011.9
05 18.08 СВ 11 н/о н/о +19.6 +14.8 74 +21 +21 комфорт 1013.1 1010.8
07 18.08 СВ 13 н/о н/о +18.1 +15.2 83 +17 +17 1011.9 1009.6
08 18.08 СВ 12 н/о н/о +18.2 +14.5 79 +17 +17 1011.9 1009.6
10 18.08 С 13 н/о н/о +17.5 +14.4 82 +16 +16 1011.1 1008.8
11 18.08 С 12 н/о н/о +17.1 +14.6 85 +15 +15 1009.8 1007.5
13 18.08 С 12 н/о н/о +16.9 +14.4 85 +15 +15 1007.2 1004.9
14 18.08 СЗ 2 н/о н/о +16.6 +11.3 71 +17 +17 1009.6 1007.3 +21.0
16 18.08 ЮЗ 4 н/о н/о +15.8 +6.3 53 +15 +15 1010.5 1008.2
17 18.08 З 3 н/о н/о +15.1 +5.0 51 +15 +15 1011.0 1008.7
19 18.08 З 3 н/о н/о +12.9 +1.0 44 +12 +12 1012.8 1010.5
20 18.08 СЗ 3 н/о н/о +12.0 +0.8 46 +11 +11 1013.8 1011.5
22 18.08 З 2 н/о н/о +13.1 +0.8 43 +13 +13 1015.3 1013.0
23 18.08 З 3 н/о н/о +14.2 +0.1 38 +13 +13 1015.8 1013.5
01 19.08 З 5 н/о н/о +16.2 -0.1 33 +15 +15 1016.1 1013.8
02 19.08 З 5 н/о н/о +16.7 +0.4 33 +16 +16 1015.8 1013.5 +11.1
04 19.08 З 5 н/о н/о +17.0 -1.1 29 +16 +16 1015.9 1013.6
05 19.08 З 5 н/о н/о +16.0 -2.5 28 +15 +15 1016.8 1014.4
07 19.08 З 3 н/о н/о +13.3 -2.6 33 +12 +12 1018.7 1016.3
08 19.08 З 3 н/о н/о +12.5 -2.9 34 +11 +11 1019.8 1017.4
10 19.08 З 4 н/о н/о +11.2 -2.2 39 +10 +10 1021.9 1019.5
11 19.08 З 2 н/о н/о +10.3 -1.7 43 +9 +9 1022.4 1020.0
13 19.08 З 2 н/о н/о +9.3 -1.4 47 +9 +9 1023.7 1021.3
14 19.08 СЗ 2 н/о н/о +9.1 -1.0 49 +8 +8 1023.7 1021.3 +17.5
16 19.08 З 3 н/о н/о +7.8 -0.9 54 +6 +6 1023.3 1020.9
17 19.08 СЗ 3 н/о н/о +8.0 -0.5 55 +6 +6 1023.1 1020.7
19 19.08 З 3 н/о н/о +8.0 -0.2 56 +6 +6 1022.7 1020.3
20 19.08 З 3 н/о н/о +7.8 +0.1 58 +6 +6 1022.7 1020.3
22 19.08 З 3 н/о н/о +10.4 +0.7 51 +9 +9 1023.6 1021.2
23 19.08 З 3 н/о н/о +12.5 +1.5 47 +12 +12 1023.4 1021.0
01 20.08 З 3 н/о н/о +16.4 +2.1 38 +16 +16 1022.7 1020.3
02 20.08 З 2 н/о н/о +18.6 +2.9 35 +19 +19 1021.5 1019.1 +7.5
04 20.08 З 2 н/о н/о +20.8 +1.1 27 +22 +22 комфорт 1019.0 1016.6
05 20.08 ЮЗ 2 н/о н/о +20.2 +2.1 30 +21 +21 комфорт 1018.6 1016.2
07 20.08 З 2 н/о н/о +18.3 +0.9 31 +19 +19 1018.7 1016.3
08 20.08 З 2 н/о н/о +16.9 +1.0 34 +17 +17 1019.3 1016.9
10 20.08 З 3 н/о н/о +14.8 +1.0 39 +14 +14 1020.3 1017.9
11 20.08 З 3 н/о н/о +13.9 +0.9 41 +13 +13 1020.0 1017.6
13 20.08 З 3 н/о н/о +12.2 +2.4 51 +11 +11 1019.8 1017.4
14 20.08 З 3 н/о н/о +11.7 +2.5 53 +11 +11 1019.4 1017.0 +21.3
16 20.08 СЗ 2 н/о н/о +11.5 +4.0 60 +11 +11 1018.5 1016.1
17 20.08 СЗ 3 н/о н/о +11.2 +3.7 60 +10 +10 1017.6 1015.2
19 20.08 СЗ 2 н/о н/о +9.6 +4.2 69 +9 +9 1016.6 1014.2
20 20.08 СЗ 2 н/о н/о +9.6 +4.4 70 +8 +8 1016.8 1014.4
22 20.08 З 2 н/о н/о +13.6 +5.0 56 +13 +13 1016.7 1014.3
23 20.08 З 3 н/о н/о +16.1 +5.1 48 +16 +16 1016.3 1014.0
01 21.08 СЗ 2 н/о н/о +19.8 +6.2 41 +21 +21 комфорт 1015.5 1013.2
02 21.08 З 3 н/о н/о +21.0 +5.8 37 +22 +22 комфорт 1014.3 1012.0 +9.5
04 21.08 З 5 н/о н/о +21.7 +4.3 32 +22 +22 комфорт 1012.9 1010.6
05 21.08 З 5 н/о н/о +21.4 +3.1 30 +21 +21 комфорт 1012.5 1010.2
07 21.08 З 4 н/о н/о +19.1 +4.1 37 +19 +19 1013.4 1011.1
08 21.08 З 3 н/о н/о +18.0 +3.9 39 +18 +18 1013.9 1011.6
10 21.08 З 3 н/о н/о +16.3 +5.0 47 +16 +16 1014.1 1011.8
11 21.08 З 3 н/о н/о +15.8 +4.8 48 +15 +15 1014.7 1012.4
13 21.08 З 3 н/о н/о +14.9 +4.9 51 +14 +14 1014.2 1011.9

 

Местоположение метеостанции Нора Хед (Новый Южный Уэльс, Австралия): широта -33.27 долгота 151.57 высота над уровнем моря 20 м.

В архиве по умолчанию представлена погода в Нора Хед за последнюю неделю. Архивные данные за месяц целиком и за предыдущие месяцы, начиная с января 2011 года, Вы можете получить, выбрав интересующий диапазон дат из раскрывающегося списка и нажав кнопку "Ввод!".


*Определитесь, кто Вы:
робот инопланетянин человек

Внимание! Время в таблицах - всемирное. Для получения местного времени необходимо прибавить поправку, которая равна 10 ч.

Смотрите также архив погоды в соседних городах и на ближайших метеорологических станциях:

Погода в Куранбонге (Новый Южный Уэльс, Австралия) (23 км)
Погода в Госфорде (Новый Южный Уэльс, Австралия) (27 км)
Погода на Мангров Маунтин (Новый Южный Уэльс, Австралия) (33 км)
Погода в Ньюкасле (Новый Южный Уэльс, Австралия) (44 км)
Погода в Террей Хилс (Новый Южный Уэльс, Австралия) (56 км)
Погода в Уильямтауне (Новый Южный Уэльс, Австралия) (58 км)
Погода в Сесноке (Новый Южный Уэльс, Австралия) (59 км)
Погода в Патерсоне (Новый Южный Уэльс, Австралия) (71 км)
Погода в Сидней Олимпик Парке (Новый Южный Уэльс, Австралия) (78 км)
Погода в Кентербери (Новый Южный Уэльс, Австралия) (82 км)

Пояснения к столбцам:

Ветер - указаны скорость ветра в м/с - средняя за 10 мин, порывы в срок и между сроками (в фигурных скобках) и направление, откуда дует ветер: С - северный, СВ - северо-восточный, В - восточный, ЮВ - юго-восточный, Ю - южный, ЮЗ - юго-западный, З - западный, СЗ - северо-западный.
Видимость - горизонтальная дальность видимости в метрах или километрах. При видимости от 1 до 10 км при отсутствии осадков обычно наблюдается дымка, при ухудшении видимости до 1 км и менее - туман. В сухую погоду видимость может ухудшаться дымом, пылью или мглою.
Явления - указаны атмосферные явления, наблюдавшиеся в срок или в последний час перед сроком; фигурными скобками обозначены явления, наблюдавшиеся между сроками (за 1-3 часа до срока); квадратными скобками обозначены град или гололедные отложения с указанием их диаметра в мм.
Облачность - указаны через наклонную черту общая и нижняя облачность в баллах и высота нижней границы облаков в метрах; квадратными скобками обозначены формы облаков: Ci - перистые, Cs - перисто-слоистые, Cc - перисто-кучевые, Ac - высококучевые, As - высокослоистые, Sc - слоисто-кучевые, Ns - слоисто-дождевые, Cu - кучевые, Cb - кучево-дождевые. Подробнее классификацию облаков см. в Атласе облаков (PDF).
T - Температура воздуха - температура, измеренная на высоте 2 м над землей.
Td - Температура точки росы - температура, при понижении до которой содержащийся в воздухе водяной пар достигнет насыщения.
f - Относительная влажность воздуха - влажноcть воздуха, измеренная на высоте 2 м над землей.
Te - Эффективная температура - температура, которую ощущает одетый по сезону человек в тени. Характеристика душности погоды. При расчете учитывается влияние влажности воздуха и скорости ветра на теплоощущения человека.
Tes - Эффективная температура на солнце - температура, которую ощущает человек, с поправкой на солнечный нагрев. Характеристика знойности погоды. Зависит от высоты солнца над горизонтом, облачности и скорости ветра. Ночью, в пасмурную погоду, а также при ветре 12 м/с и более поправка равна нулю.
P - Атмосферное давление - приведенное к уровню моря атмосферное давление.
Po - Атмосферное давление - измеренное на уровне метеостанции атмосферное давление.
Tmin - Минимальная температура - минимум температуры воздуха на высоте 2 м над землей.
Tmax - Максимальная температура - максимум температуры воздуха на высоте 2 м над землей.
R - Количество осадков - Количество выпавших осадков за период времени, мм. При наведении курсора мыши на число - период времени, за который выпало указанное количество осадков.
R24 - Количество осадков - Количество выпавших осадков за 24 часа, мм.
S - Снежный покров - Высота снежного покрова, см. При наведении курсора мыши на число - состояние снежного покрова и степень покрытия местности в баллах.